Wind_Speed
21 22 21 20 18 16 15 14 12 11 10 8 8 7 6 6 6 7 8 9 9 10 10 9 9 9 9 9 10 9 8 9 9 9 11 12 14 15 16 16 16 17 18 18
22 22 21 19 17 16 15 14 11 10 9 8 7 6 4 4 5 7 8 9 9 10 10 10 9 9 8 9 10 10 9 9 9 10 11 12 14 14 15 16 16 17 17 17
21 21 21 19 17 16 15 13 11 10 8 7 6 5 4 4 5 6 7 8 9 9 9 9 8 8 8 9 10 10 9 9 9 10 11 12 13 14 15 16 16 17 17 16
22 21 21 19 16 15 13 12 10 9 8 7 6 5 4 4 5 6 7 8 8 9 9 8 8 8 8 9 9 10 9 9 9 10 11 12 13 13 14 15 16 16 16 16
22 22 20 19 17 14 12 10 9 9 8 7 6 5 4 4 5 6 7 7 7 8 8 7 8 8 8 9 9 10 9 9 9 10 11 12 12 13 14 15 15 16 16 15
20 20 19 17 15 13 11 9 9 9 8 6 6 4 4 4 5 5 5 6 7 7 7 7 8 8 9 9 9 10 10 10 10 10 11 11 12 13 14 15 15 15 15 15
17 17 16 15 13 12 10 9 8 8 7 5 5 4 4 4 4 5 6 6 7 7 8 8 8 8 9 9 10 11 11 11 10 11 11 11 12 12 13 14 15 15 14 14
14 14 14 13 12 11 9 7 6 6 5 3 3 3 4 5 6 6 7 8 8 8 8 9 9 9 10 10 11 12 12 11 11 11 11 11 11 12 12 13 14 14 13 13
12 12 11 10 9 8 7 5 4 4 3 2 3 4 5 6 7 7 9 9 9 9 9 10 10 10 11 12 12 12 12 12 11 11 11 11 12 12 12 13 13 12 12 12
11 10 9 8 7 6 5 3 2 2 2 3 4 5 6 7 8 9 9 10 10 10 10 11 11 12 12 12 13 13 12 12 12 12 12 12 12 12 12 12 12 12 11 11
9 8 7 6 5 4 3 2 1 2 2 4 5 5 7 8 8 9 10 11 11 12 12 12 12 13 13 13 13 14 13 13 13 13 12 12 12 12 12 12 12 11 11 10
8 7 6 5 4 3 2 1 1 2 2 3 5 5 7 8 8 9 10 11 12 12 12 13 13 14 14 14 15 15 14 14 14 14 14 13 13 13 13 13 12 12 11 11
7 6 5 4 3 2 0 1 2 3 3 4 5 6 7 8 9 9 11 12 13 13 14 13 14 15 16 16 16 16 16 16 16 15 15 15 15 14 14 14 13 13 12 11
6 5 4 3 2 2 2 2 3 3 4 4 5 6 8 9 10 11 11 13 14 14 15 15 15 16 16 17 17 17 17 17 17 17 17 17 16 16 16 15 15 14 13 12
5 4 4 3 2 2 2 2 3 4 4 5 6 7 8 9 10 11 12 14 15 16 16 17 17 18 18 18 18 19 19 19 19 19 19 19 18 18 18 17 17 16 15 14
3 2 2 2 2 2 2 3 4 5 5 6 7 7 9 10 11 12 13 15 16 17 17 18 19 19 20 20 20 20 20 21 21 21 21 21 20 20 20 20 19 18 17 16
1 1 2 2 3 3 3 5 5 6 7 8 8 9 10 11 12 14 15 16 17 17 18 19 20 21 21 22 22 22 22 22 23 23 23 23 22 22 22 22 21 21 20 19
4 4 4 5 6 5 6 6 7 8 9 9 10 11 13 14 15 16 17 18 19 20 20 21 22 23 23 24 24 24 24 25 25 25 25 25 24 24 24 24 24 23 23 22
6 7 7 7 8 7 8 9 10 10 11 12 13 14 16 17 19 20 21 22 22 23 24 24 25 25 26 26 27 27 27 28 28 28 27 27 27 26 26 26 26 26 25 25
10 10 10 11 11 10 11 12 12 13 13 16 16 18 19 20 21 22 24 25 26 27 27 28 28 29 29 30 30 30 30 30 31 31 31 30 30 29 29 29 29 29 28 27
13 14 14 14 14 14 15 15 16 16 17 18 20 21 22 24 25 26 27 28 29 31 32 33 33 33 34 34 34 34 34 34 34 34 34 34 33 33 32 32 32 31 31 30
16 17 17 18 18 17 19 19 20 20 21 22 23 24 26 27 29 30 31 32 33 34 36 37 38 38 38 38 38 38 38 38 37 37 37 37 36 36 36 35 35 34 34 33
20 21 21 21 21 22 22 23 23 24 25 26 27 28 30 31 32 34 35 36 38 39 40 41 42 42 42 43 43 42 42 42 41 41 40 40 40 40 39 39 38 38 37 36
24 25 25 25 25 26 26 27 27 28 29 30 31 33 34 35 37 38 39 41 43 44 45 46 46 47 47 47 48 47 46 45 45 46 45 44 44 44 43 43 43 42 41 40
28 28 28 28 29 29 29 30 31 32 33 34 35 37 38 39 41 42 44 46 47 48 49 50 50 51 51 51 52 52 52 51 50 49 49 49 48 47 47 47 46 46 45 44
31 32 32 32 32 33 32 34 35 36 37 38 40 41 42 44 45 47 48 50 51 52 53 54 54 55 55 55 55 56 56 55 54 53 52 52 51 51 50 50 50 50 49 48
Wind_Direction
160 162 166 171 176 184 186 189 192 198 202 210 212 222 233 247 266 271 272 274 277 279 279 277 280 285 286 290 296 303 307 308 311 317 323 327 331 333 333 333 332 333 335 337
151 156 159 163 168 171 175 180 180 182 184 186 190 200 226 239 249 262 272 277 278 279 277 276 278 281 285 289 296 302 305 307 313 319 324 329 331 332 333 334 334 334 336 338
146 151 153 153 155 159 167 174 176 181 183 188 191 200 218 232 248 263 274 280 280 279 280 280 281 285 289 292 295 300 303 307 314 319 324 329 332 333 334 335 336 337 340 340
140 145 147 148 151 159 163 168 173 176 179 177 182 195 215 235 255 268 275 280 281 280 281 284 287 292 293 294 297 301 303 308 314 320 325 329 332 333 335 337 338 339 341 342
138 144 149 151 153 154 157 163 160 160 164 167 179 198 218 244 266 279 279 285 287 285 286 290 291 294 297 297 299 303 305 308 312 318 324 327 329 332 335 338 340 341 342 345
139 144 149 153 155 156 156 157 155 158 162 170 179 201 223 251 278 294 296 300 295 291 294 299 299 300 300 300 302 304 306 310 312 316 319 322 326 331 335 338 341 342 344 347
137 142 147 150 151 155 159 161 162 162 164 169 181 210 235 260 287 305 311 310 307 304 305 306 307 305 303 303 305 307 307 308 310 313 314 317 323 329 334 338 341 343 346 349
136 141 146 150 152 156 161 163 166 165 164 172 203 232 259 280 299 314 320 318 315 311 308 309 311 309 306 306 307 308 308 307 307 309 309 312 318 325 331 335 339 343 347 351
134 137 142 149 153 158 160 161 162 176 192 225 247 261 273 290 303 315 321 319 314 309 307 306 307 308 308 308 307 306 305 304 303 304 305 306 311 318 325 331 335 339 344 349
129 133 135 140 145 149 154 160 173 205 242 263 268 276 290 304 314 319 319 319 314 308 306 304 304 306 307 307 305 304 301 300 300 299 300 302 305 310 316 323 330 332 336 342
123 129 132 136 138 143 148 155 200 244 256 268 280 290 306 312 318 321 321 319 317 311 306 302 304 306 306 307 304 302 300 299 298 297 296 298 300 303 308 314 320 325 327 331
119 124 130 132 133 140 144 173 273 287 297 297 297 300 311 318 323 322 321 320 317 314 309 305 304 305 305 305 304 302 300 299 298 297 294 294 295 297 300 304 309 315 318 320
110 113 118 118 110 105 70 309 313 316 317 315 308 309 314 317 318 317 315 315 316 314 311 308 304 303 304 305 304 302 300 298 297 296 294 292 292 292 293 296 299 304 308 310
100 99 96 93 83 61 27 352 335 329 328 326 321 315 314 315 314 313 312 312 312 313 311 310 308 305 304 304 304 303 300 298 297 294 292 290 289 289 289 290 292 294 297 300
97 97 91 88 73 54 35 0 342 333 332 326 318 315 314 312 310 309 309 310 311 311 311 310 308 308 306 305 304 302 301 300 298 295 291 290 288 286 286 285 285 287 288 290
85 84 68 53 23 7 342 330 326 324 322 318 314 311 308 308 308 308 309 310 311 311 310 308 308 307 306 304 302 300 298 298 296 295 291 288 287 285 284 282 280 280 281 282
306 315 325 328 325 323 317 317 312 310 310 308 306 304 303 303 303 305 306 307 308 309 310 309 307 306 305 303 300 299 296 294 293 292 290 287 284 283 282 281 278 277 276 276
280 290 299 304 308 310 308 309 307 304 303 301 299 298 297 298 300 301 302 304 305 306 306 306 306 304 303 302 300 299 297 294 292 290 288 286 283 281 280 278 276 274 273 272
281 286 291 295 297 299 298 299 300 300 298 297 296 297 297 299 300 300 301 301 301 302 302 302 302 300 300 299 298 297 295 294 292 290 287 285 283 281 279 277 274 273 271 269
282 286 289 291 291 290 293 295 296 296 292 295 296 296 298 300 300 301 302 302 302 302 302 301 301 300 299 298 296 295 293 292 290 288 286 284 281 279 277 275 273 271 269 267
283 286 288 289 291 292 293 294 295 294 293 295 296 297 298 299 300 301 301 301 301 301 301 300 299 298 297 296 295 293 291 290 289 287 285 283 280 277 274 272 271 269 267 265
284 286 288 289 291 292 293 293 294 294 295 296 296 297 298 298 299 300 300 300 300 300 299 299 297 296 295 294 292 291 290 288 287 285 283 281 279 276 273 271 269 267 265 264
281 284 286 288 290 290 291 292 292 293 294 296 297 297 297 297 298 299 299 300 300 299 299 298 297 296 294 293 291 290 288 287 285 284 282 279 277 275 273 270 268 266 264 262
278 281 283 285 287 287 288 290 291 293 294 296 296 297 297 298 298 299 299 299 299 299 298 297 296 295 294 293 291 289 288 285 284 282 280 278 276 274 271 269 267 265 263 261
277 279 280 282 284 285 287 289 291 292 294 295 296 297 298 298 298 298 298 298 298 298 297 296 295 294 293 292 291 289 288 286 284 281 279 277 274 272 270 267 265 264 262 260
276 277 278 280 282 285 287 288 290 292 294 295 296 297 297 298 298 298 298 298 298 298 297 297 296 295 294 293 291 290 289 287 285 281 278 275 273 270 268 265 263 261 260 258
Height
5795 5802 5807 5813 5818 5823 5827 5831 5834 5837 5839 5841 5843 5844 5846 5846 5847 5847 5847 5847 5846 5846 5846 5845 5845 5844 5843 5842 5841 5840 5839 5838 5836 5835 5833 5831 5828 5826 5823 5820 5816 5813 5809 5805
5799 5804 5809 5814 5819 5823 5827 5831 5833 5836 5838 5840 5842 5844 5845 5845 5846 5846 5846 5845 5845 5844 5844 5843 5843 5842 5841 5841 5839 5838 5837 5836 5835 5833 5831 5829 5826 5824 5821 5818 5815 5811 5807 5804
5802 5807 5811 5816 5820 5824 5827 5831 5834 5836 5838 5840 5842 5844 5844 5845 5845 5845 5845 5844 5843 5843 5842 5842 5841 5840 5840 5839 5838 5837 5835 5834 5833 5831 5829 5827 5825 5822 5820 5817 5813 5810 5806 5802
5805 5809 5814 5818 5822 5825 5828 5831 5833 5835 5838 5840 5842 5843 5844 5844 5844 5844 5844 5843 5842 5841 5841 5840 5839 5838 5838 5837 5836 5835 5833 5832 5831 5829 5827 5825 5823 5821 5818 5815 5812 5808 5805 5801
5808 5812 5816 5820 5823 5826 5829 5831 5833 5836 5838 5840 5842 5843 5844 5843 5844 5843 5843 5842 5841 5840 5839 5838 5837 5837 5836 5835 5834 5832 5831 5830 5829 5827 5826 5824 5822 5820 5817 5814 5811 5807 5804 5800
5812 5815 5818 5821 5824 5827 5830 5833 5834 5836 5838 5840 5841 5843 5843 5843 5843 5842 5841 5840 5839 5838 5837 5837 5836 5835 5834 5833 5832 5830 5829 5828 5827 5825 5824 5822 5820 5818 5816 5813 5810 5807 5803 5800
5816 5819 5821 5824 5826 5829 5832 5834 5835 5836 5838 5840 5841 5841 5842 5841 5841 5841 5840 5839 5838 5837 5836 5835 5834 5833 5832 5831 5829 5828 5827 5826 5825 5823 5822 5821 5819 5817 5815 5812 5809 5806 5803 5800
5820 5822 5824 5826 5828 5830 5832 5834 5836 5837 5838 5839 5840 5840 5841 5841 5840 5840 5839 5837 5836 5835 5834 5833 5832 5831 5830 5828 5827 5826 5825 5823 5822 5821 5820 5819 5817 5815 5813 5811 5808 5806 5803 5800
5822 5825 5826 5828 5829 5831 5832 5834 5836 5837 5838 5839 5839 5840 5840 5840 5839 5838 5837 5836 5835 5834 5832 5831 5830 5828 5827 5826 5825 5824 5822 5821 5820 5820 5818 5817 5815 5814 5812 5810 5808 5805 5803 5800
5825 5827 5828 5829 5831 5832 5833 5834 5836 5837 5837 5838 5839 5839 5839 5838 5838 5837 5836 5834 5833 5831 5830 5829 5828 5826 5825 5824 5822 5821 5820 5819 5818 5817 5816 5815 5813 5812 5811 5809 5807 5804 5802 5800
5826 5828 5830 5830 5831 5832 5834 5835 5835 5836 5836 5837 5837 5839 5837 5836 5835 5834 5833 5832 5831 5829 5828 5827 5825 5824 5823 5821 5820 5819 5818 5816 5815 5815 5814 5812 5811 5810 5809 5807 5805 5803 5801 5799
5827 5829 5830 5831 5832 5832 5833 5834 5834 5835 5835 5835 5835 5839 5835 5834 5833 5832 5831 5830 5828 5827 5825 5824 5823 5822 5820 5819 5818 5816 5815 5814 5813 5812 5811 5810 5809 5808 5806 5805 5804 5802 5800 5798
5828 5830 5830 5831 5833 5833 5832 5833 5833 5834 5834 5834 5834 5836 5833 5832 5831 5830 5829 5827 5826 5824 5823 5821 5820 5819 5817 5816 5815 5814 5812 5811 5810 5809 5808 5807 5806 5805 5804 5803 5801 5800 5798 5797
5829 5829 5831 5832 5831 5831 5831 5832 5832 5832 5832 5832 5832 5832 5831 5830 5829 5828 5826 5825 5823 5822 5820 5819 5817 5816 5814 5813 5811 5810 5809 5808 5806 5805 5804 5803 5802 5801 5800 5800 5799 5797 5796 5795
5829 5829 5829 5830 5830 5830 5830 5830 5830 5830 5830 5830 5830 5829 5828 5827 5826 5825 5824 5822 5821 5819 5817 5816 5814 5813 5811 5809 5808 5806 5805 5804 5803 5802 5801 5799 5799 5798 5797 5796 5795 5794 5793 5792
5828 5829 5829 5829 5829 5829 5829 5829 5829 5828 5828 5828 5827 5827 5826 5824 5823 5822 5821 5819 5818 5816 5814 5813 5811 5809 5807 5806 5804 5802 5801 5799 5798 5797 5796 5795 5794 5793 5792 5792 5791 5790 5790 5789
5827 5827 5828 5828 5827 5828 5828 5828 5827 5826 5826 5825 5825 5825 5822 5821 5820 5819 5817 5816 5814 5812 5810 5809 5807 5805 5803 5801 5800 5798 5796 5795 5793 5792 5791 5790 5789 5788 5787 5787 5786 5786 5785 5784
5825 5825 5825 5825 5826 5826 5828 5825 5824 5823 5823 5822 5821 5820 5819 5818 5816 5814 5813 5811 5809 5807 5806 5804 5802 5800 5798 5796 5794 5792 5791 5789 5788 5786 5785 5784 5783 5782 5781 5781 5780 5780 5780 5779
5822 5822 5822 5822 5822 5822 5823 5822 5820 5820 5819 5818 5817 5815 5814 5813 5811 5810 5808 5806 5804 5802 5800 5798 5796 5794 5792 5790 5788 5786 5784 5783 5781 5780 5778 5777 5776 5776 5775 5774 5773 5773 5773 5773
5819 5819 5819 5819 5818 5818 5819 5818 5816 5816 5815 5813 5812 5810 5809 5807 5806 5804 5802 5799 5797 5795 5793 5791 5789 5787 5785 5783 5781 5779 5777 5775 5774 5772 5771 5769 5769 5768 5767 5767 5766 5765 5765 5766
5815 5815 5815 5814 5813 5813 5813 5812 5811 5811 5811 5808 5806 5804 5803 5801 5799 5797 5794 5792 5790 5787 5785 5783 5780 5778 5776 5774 5772 5770 5768 5766 5765 5763 5762 5760 5759 5759 5758 5758 5757 5757 5757 5757
5809 5809 5809 5808 5808 5810 5807 5805 5805 5804 5802 5801 5799 5797 5795 5793 5791 5789 5786 5784 5781 5779 5776 5774 5771 5769 5766 5764 5762 5760 5758 5756 5754 5753 5752 5750 5749 5748 5748 5748 5747 5747 5747 5748
5803 5804 5803 5803 5804 5801 5800 5798 5797 5796 5795 5793 5792 5790 5788 5785 5783 5780 5778 5775 5772 5769 5766 5763 5760 5758 5755 5752 5750 5748 5746 5744 5742 5741 5739 5738 5737 5736 5736 5736 5736 5736 5736 5737
5796 5796 5795 5795 5794 5793 5791 5790 5789 5788 5786 5785 5783 5781 5778 5776 5773 5770 5768 5764 5761 5758 5754 5751 5748 5745 5742 5739 5736 5734 5733 5731 5729 5727 5726 5725 5724 5723 5723 5722 5723 5723 5724 5725
5788 5787 5786 5786 5785 5784 5783 5781 5780 5778 5777 5775 5773 5771 5768 5765 5762 5759 5756 5752 5749 5745 5741 5737 5734 5730 5727 5724 5721 5718 5716 5715 5713 5712 5710 5709 5709 5708 5708 5708 5708 5709 5710 5711
5779 5777 5776 5776 5775 5774 5774 5772 5770 5768 5766 5764 5762 5759 5756 5753 5750 5747 5743 5739 5735 5731 5726 5722 5718 5714 5711 5707 5704 5701 5698 5696 5695 5693 5692 5691 5691 5690 5690 5691 5692 5692 5694 5695